FW4626 Weather Reports


Display with metric or nautical units.
time (UTC)temp
F
wind
direction
speed
MPH
gust
MPH
rain 1hr
in
rain 24hr
in
rain mn
in
humidity
%
barometer
mb
20260504173016 55 220 3.0 12.0 0.00 0.00 0.00 66 1017.2
20260504171532 54 46 10.0 19.0 0.00 0.00 0.00 66 1017.1
20260504081521 40 14 10.0 23.0 0.00 0.00 0.00 79 1017.9
20260504044526 42 264 8.0 17.0 0.00 0.00 0.00 53 1019.5
20260504043019 42 275 10.0 17.0 0.00 0.00 0.00 53 1019.3
20260504041515 42 257 9.0 15.0 0.00 0.00 0.00 54 1019.3
20260504040012 42 354 10.0 17.0 0.00 0.00 0.00 55 1019.4
20260504034508 42 262 10.0 16.0 0.00 0.00 0.00 51 1019.3
20260504033007 42 219 2.0 7.0 0.00 0.00 0.00 49 1019.1
20260504031505 42 221 5.0 11.0 0.00 0.00 0.00 50 1019.1
20260504030003 42 240 6.0 11.0 0.00 0.00 0.00 56 1019.2
20260504024505 42 299 5.0 14.0 0.00 0.00 0.00 59 1019.4
20260504023100 41 251 9.0 16.0 0.00 0.00 0.00 62 1019.6
20260504021557 42 262 9.0 15.0 0.00 0.00 0.00 57 1019.7
20260504020057 42 264 8.0 17.0 0.00 0.00 0.00 54 1019.6
20260504014603 42 238 8.0 14.0 0.00 0.00 0.00 52 1019.4
20260504013054 42 252 4.0 9.0 0.00 0.00 0.00 52 1019.3
20260504011558 43 268 6.0 13.0 0.00 0.00 0.00 50 1019.3
20260504010056 42 262 5.0 11.0 0.00 0.00 0.00 54 1019.2
20260504004547 42 274 5.0 9.0 0.00 0.00 0.00 55 1019.0
20260504003050 42 263 5.0 8.0 0.00 0.00 0.00 54 1019.0
20260504001543 43 257 2.0 9.0 0.00 0.00 0.00 52 1018.9
20260504000038 44 18 3.0 8.0 0.00 0.00 0.00 50 1018.9
20260503234545 46 348 2.0 7.0 0.00 0.00 0.00 48 1019.0
20260503233034 47 25 2.0 8.0 0.00 0.00 0.00 48 1019.0
20260503231532 47 22 4.0 10.0 0.00 0.00 0.00 48 1018.9
20260503230034 48 257 5.0 13.0 0.00 0.00 0.00 47 1018.8
20260503224528 49 349 3.0 13.0 0.00 0.00 0.00 46 1018.8
20260503223027 49 271 4.0 12.0 0.00 0.00 0.00 47 1019.0
20260503221526 49 238 5.0 11.0 0.00 0.00 0.00 46 1019.0
20260503220039 48 267 5.0 11.0 0.00 0.00 0.00 45 1019.2
20260503214521 49 264 6.0 12.0 0.00 0.00 0.00 45 1019.4
20260503213024 48 306 3.0 15.0 0.00 0.00 0.00 45 1019.6
20260503211519 48 243 4.0 16.0 0.00 0.00 0.00 43 1019.7
20260503210017 49 42 7.0 11.0 0.00 0.00 0.00 44 1019.6
20260503204515 48 264 5.0 10.0 0.00 0.00 0.00 46 1019.8
20260503203025 47 229 4.0 14.0 0.00 0.00 0.00 46 1019.9
20260503201515 47 293 7.0 15.0 0.00 0.00 0.00 46 1020.0
20260503200012 47 154 4.0 14.0 0.00 0.00 0.00 45 1020.1
20260503194510 48 2 1.0 10.0 0.00 0.00 0.00 47 1020.3
20260503193011 46 55 5.0 17.0 0.00 0.00 0.00 49 1020.3
20260503191513 46 30 3.0 13.0 0.00 0.00 0.00 50 1020.3
20260503190004 44 21 1.0 12.0 0.00 0.00 0.00 48 1020.4
20260503184504 45 39 6.0 15.0 0.00 0.00 0.00 49 1020.5
20260503183001 44 39 8.0 16.0 0.00 0.00 0.00 48 1020.4
20260503181611 43 4 8.0 12.0 0.00 0.00 0.00 50 1020.7
20260503180059 43 24 11.0 19.0 0.00 0.00 0.00 49 1020.7
20260503174557 43 46 5.0 11.0 0.00 0.00 0.00 52 1020.8